Location: Foulognes
(49.1413°N, 0.8183°W)
Time: 01:55:26
(UTC+00:00)

STARLINK-24 - Pass Details

Date: 21 October 2019
Orbit: 550 x 553 km, 53.0° (Epoch: 11 November)

Event Time Altitude Azimuth Distance (km) Brightness Sun altitude
Rises 19:04:13 0° 286° (WNW) 2,723 8.7 -20.6°
Reaches altitude 10° 19:06:30 10° 292° (WNW) 1,829 7.4 -21.0°
Maximum altitude 19:10:35 53° 10° (N) 681 4.0 -21.6°
Enters shadow 19:10:54 52° 28° (NNE) 693 3.9 -21.7°
